Location: ??????????
(54.8537°N, 38.8755°E)
Time: 15:08:03
(UTC+00:00)

Tiros 1 despin weight - Pass Details

Date: 21 September 2024
Orbit: 573 x 614 km, 48.2° (Epoch: 07 October)

Event Time Altitude Azimuth Distance (km) Brightness Sun altitude
Rises 01:22:40 0° 258° (WSW) 2,874 - -15.6°
Reaches altitude 10° 01:25:06 10° 249° (WSW) 1,974 - -15.3°
Exits shadow 01:27:19 24° 230° (SW) 1,269 ? -15.0°
Maximum altitude 01:29:15 35° 184° (S) 992 ? -14.7°
Drops below altitude 10° 01:33:24 10° 118° (ESE) 1,981 ? -14.2°
Sets 01:35:51 0° 110° (ESE) 2,886 ? -13.8°
